sat.trackr.live / text

‹ back to catalog

STARLINK-11390 [DTC]

NORAD 61947 · 2024-209J

PAYLOAD ACTIVE UNKNOWN

§ Identity

Operator
Country
US
Launch date
2024-11-14
Launch site
AFWTR
Launch vehicle
Mass (kg)
RCS (m²)

Purposes: comms

External: N2YO · Heavens-Above · Gunter

§ Orbital elements

Epoch: 2026-09-21T21:30:56.441376Z

Period
91.74 min
Inclination
53.1567°
Eccentricity
0.0000863
Mean motion
15.69720368 rev/d
Perigee alt
359.1 km
Apogee alt
360.3 km
Semi-major
6,737.8 km
B*
1.2192e-3
RAAN
124.0863°
Arg perigee
99.4987°
Mean anomaly
260.6128°
Rev number
10,753

§ Raw data

STARLINK-11390 [DTC]1 61947U 24209J   26264.89648659  .00149882  00000+0  12192-2 0  99972 61947  53.1567 124.0863 0000863  99.4987 260.6128 15.69720368107531

JSON: /api/v1/satellites/61947 · /tle

For live sub-satellite position, see the globe view (requires WebGL).

§ Visibility from observer

Set your observer location to see the next 7 days of passes ≥ 10°. The values pass through the URL so the page stays shareable.

No JS? Fill the form by hand. The geolocation button needs JavaScript.